EW3649 Weather Reports


time (UTC)temp
C
wind
direction
speed
KPH
gust
KPH
rain 1hr
cm
rain 24hr
cm
rain mn
cm
humidity
%
barometer
mb
20260508041505 13 0 0.0 0.0 0.00 0.00 0.00 72 1016.5
20260508040505 13 0 0.0 0.0 0.00 0.00 0.00 71 1016.5
20260508040005 13 0 0.0 0.0 0.00 0.00 0.00 70 1016.5
20260508035505 14 0 0.0 0.0 0.00 0.00 0.00 70 1016.4
20260508034505 14 0 0.0 0.0 0.00 0.00 0.00 68 1016.3
20260508034005 15 0 0.0 0.0 0.00 0.00 0.00 67 1016.3
20260508033504 15 0 0.0 0.0 0.00 0.00 0.00 67 1016.4
20260508032505 15 0 0.0 0.0 0.00 0.00 0.00 65 1016.4
20260508031505 15 0 0.0 0.0 0.00 0.00 0.00 65 1016.4
20260508031006 16 0 0.0 0.0 0.00 0.00 0.00 63 1016.4
20260508030005 16 0 0.0 0.0 0.00 0.00 0.00 62 1016.4
20260508025505 16 0 0.0 0.0 0.00 0.00 0.00 62 1016.4
20260508025005 16 0 0.0 0.0 0.00 0.00 0.00 62 1016.4
20260508024505 16 0 0.0 0.0 0.00 0.00 0.00 61 1016.5
20260508024005 16 0 0.0 0.0 0.00 0.00 0.00 61 1016.5
20260508023505 16 0 0.0 0.0 0.00 0.00 0.00 61 1016.5
20260508023005 16 0 0.0 0.0 0.00 0.00 0.00 61 1016.4
20260508022506 16 0 0.0 0.0 0.00 0.00 0.00 61 1016.5
20260508022004 16 0 0.0 0.0 0.00 0.00 0.00 61 1016.4
20260508021006 17 0 0.0 0.0 0.00 0.00 0.00 60 1016.6
20260508020505 17 0 0.0 0.0 0.00 0.00 0.00 59 1016.6
20260508020006 17 0 0.0 0.0 0.00 0.00 0.00 61 1016.6
20260508015006 17 0 0.0 0.0 0.00 0.00 0.00 59 1016.6
20260508014505 17 0 0.0 0.0 0.00 0.00 0.00 60 1016.7
20260508014006 17 355 0.0 1.6 0.00 0.00 0.00 60 1016.7
20260508013505 17 355 0.0 4.8 0.00 0.00 0.00 59 1016.7
20260508012505 17 0 0.0 0.0 0.00 0.00 0.00 59 1016.7
20260508012005 17 355 0.0 3.2 0.00 0.00 0.00 59 1016.7
20260508011505 17 355 0.0 3.2 0.00 0.00 0.00 59 1016.8
20260508011004 17 355 0.0 1.6 0.00 0.00 0.00 58 1016.9
20260508010006 17 355 0.0 1.6 0.00 0.00 0.00 59 1017.1
20260508005504 17 355 0.0 1.6 0.00 0.00 0.00 59 1017.1
20260508005005 17 0 0.0 0.0 0.00 0.00 0.00 58 1017.1
20260508004504 17 355 0.0 1.6 0.00 0.00 0.00 58 1017.2
20260508004005 17 355 0.0 1.6 0.00 0.00 0.00 57 1017.2
20260508003504 17 355 0.0 1.6 0.00 0.00 0.00 59 1017.2
20260508003006 17 355 0.0 4.8 0.00 0.00 0.00 57 1017.3
20260508002505 17 355 0.0 4.8 0.00 0.00 0.00 57 1017.3
20260508002005 18 355 0.0 1.6 0.00 0.00 0.00 57 1017.3
20260508001007 18 355 0.0 1.6 0.00 0.00 0.00 55 1017.3
20260508000505 18 355 0.0 1.6 0.00 0.00 0.00 55 1017.3
20260508000004 18 355 0.0 1.6 0.00 0.00 0.00 55 1017.3
20260507235505 18 355 0.0 1.6 0.00 0.00 0.00 55 1017.3
20260507235005 18 5 0.0 1.6 0.00 0.00 0.00 56 1017.2
20260507234504 18 5 0.0 1.6 0.00 0.00 0.00 55 1017.3
20260507234005 18 1 0.0 1.6 0.00 0.00 0.00 55 1017.3
20260507233505 18 1 0.0 1.6 0.00 0.00 0.00 55 1017.3
20260507233004 18 1 0.0 3.2 0.00 0.00 0.00 56 1017.4
20260507232504 18 359 0.0 6.4 0.00 0.00 0.00 56 1017.4
20260507232005 18 359 0.0 6.4 0.00 0.00 0.00 54 1017.4
20260507231505 18 0 0.0 0.0 0.00 0.00 0.00 56 1017.5
20260507230504 18 0 0.0 0.0 0.00 0.00 0.00 57 1017.6
20260507230006 18 355 0.0 1.6 0.00 0.00 0.00 56 1017.6
20260507225505 18 355 0.0 1.6 0.00 0.00 0.00 56 1017.8
20260507225005 18 0 0.0 0.0 0.00 0.00 0.00 55 1017.8
20260507224505 18 0 0.0 0.0 0.00 0.00 0.00 57 1017.8
20260507223505 17 0 0.0 0.0 0.00 0.00 0.00 58 1017.9
20260507221504 17 0 0.0 0.0 0.00 0.00 0.00 58 1018.2
20260507221005 17 0 0.0 0.0 0.00 0.00 0.00 57 1018.2
20260507220004 18 0 0.0 0.0 0.00 0.00 0.00 58 1018.3
20260507215505 18 0 0.0 0.0 0.00 0.00 0.00 57 1018.3
20260507215005 18 1 0.0 1.6 0.00 0.00 0.00 57 1018.4
20260507214505 18 1 0.0 1.6 0.00 0.00 0.00 59 1018.4
20260507214006 17 0 0.0 0.0 0.00 0.00 0.00 59 1018.5
20260507213504 17 0 0.0 0.0 0.00 0.00 0.00 62 1018.5
20260507212504 17 0 0.0 0.0 0.00 0.00 0.00 60 1018.6
20260507211504 17 0 0.0 0.0 0.00 0.00 0.00 63 1018.8
20260507211006 17 0 0.0 0.0 0.00 0.00 0.00 62 1018.8
20260507210505 16 0 0.0 0.0 0.00 0.00 0.00 63 1018.8
20260507210006 16 0 0.0 0.0 0.00 0.00 0.00 64 1018.9
20260507205505 16 0 0.0 0.0 0.00 0.00 0.00 62 1018.9
20260507204504 16 0 0.0 0.0 0.00 0.00 0.00 66 1019.1
20260507204004 16 0 0.0 0.0 0.00 0.00 0.00 66 1019.1
20260507203505 16 0 0.0 0.0 0.00 0.00 0.00 65 1019.1
20260507203005 16 0 0.0 0.0 0.00 0.00 0.00 65 1019.2
20260507202504 16 0 0.0 0.0 0.00 0.00 0.00 65 1019.2
20260507202005 16 0 0.0 0.0 0.00 0.00 0.00 65 1019.3
20260507201504 16 0 0.0 0.0 0.00 0.00 0.00 67 1019.3
20260507201004 16 0 0.0 0.0 0.00 0.00 0.00 65 1019.4
20260507200005 15 0 0.0 0.0 0.00 0.00 0.00 65 1019.5
20260507195504 15 0 0.0 0.0 0.00 0.00 0.00 65 1019.5
20260507195005 15 0 0.0 0.0 0.00 0.00 0.00 66 1019.5
20260507194504 15 0 0.0 0.0 0.00 0.00 0.00 67 1019.5
20260507194005 15 0 0.0 0.0 0.00 0.00 0.00 66 1019.5
20260507193505 15 0 0.0 0.0 0.00 0.00 0.00 67 1019.6
20260507193005 15 0 0.0 0.0 0.00 0.00 0.00 67 1019.6
20260507192504 15 0 0.0 0.0 0.00 0.00 0.00 67 1019.6
20260507192006 15 0 0.0 0.0 0.00 0.00 0.00 67 1019.7
20260507191504 15 0 0.0 0.0 0.00 0.00 0.00 68 1019.7
20260507191005 15 0 0.0 0.0 0.00 0.00 0.00 70 1019.7
20260507190504 15 0 0.0 0.0 0.00 0.00 0.00 71 1019.7
20260507190005 14 0 0.0 0.0 0.00 0.00 0.00 69 1019.8
20260507185504 14 276 0.0 3.2 0.00 0.00 0.00 69 1019.8
20260507185004 14 276 0.0 3.2 0.00 0.00 0.00 70 1019.8
20260507184504 14 276 0.0 1.6 0.00 0.00 0.00 71 1019.9
20260507184005 14 0 0.0 0.0 0.00 0.00 0.00 70 1019.9
20260507183504 14 0 0.0 0.0 0.00 0.00 0.00 71 1020.0
20260507183005 13 0 0.0 0.0 0.00 0.00 0.00 71 1020.0
20260507182504 13 0 0.0 0.0 0.00 0.00 0.00 71 1020.1
20260507182004 13 0 0.0 0.0 0.00 0.00 0.00 71 1020.1
20260507181005 13 0 0.0 0.0 0.00 0.00 0.00 73 1020.1
20260507180504 13 0 0.0 0.0 0.00 0.00 0.00 74 1020.2
20260507180006 13 0 0.0 0.0 0.00 0.00 0.00 74 1020.2
20260507175504 13 0 0.0 0.0 0.00 0.00 0.00 74 1020.2
20260507174504 12 0 0.0 0.0 0.00 0.00 0.00 76 1020.3
20260507174005 12 0 0.0 0.0 0.00 0.00 0.00 76 1020.3
20260507173505 12 0 0.0 0.0 0.00 0.00 0.00 75 1020.3
20260507173005 12 0 0.0 0.0 0.00 0.00 0.00 77 1020.3
20260507172504 12 0 0.0 0.0 0.00 0.00 0.00 77 1020.3
20260507172005 12 0 0.0 0.0 0.00 0.00 0.00 77 1020.2
20260507171503 12 0 0.0 0.0 0.00 0.00 0.00 78 1020.2
20260507171005 12 0 0.0 0.0 0.00 0.00 0.00 77 1020.2
20260507165505 12 276 0.0 4.8 0.00 0.00 0.00 78 1020.2
20260507165005 12 276 0.0 4.8 0.00 0.00 0.00 77 1020.2
20260507164504 12 276 0.0 3.2 0.00 0.00 0.00 78 1020.2
20260507164007 12 276 0.0 3.2 0.00 0.00 0.00 78 1020.2
20260507163504 12 276 0.0 3.2 0.00 0.00 0.00 78 1020.2
20260507162505 12 276 0.0 1.6 0.00 0.00 0.00 78 1020.3
20260507162006 12 276 0.0 1.6 0.00 0.00 0.00 78 1020.3
20260507161504 12 276 0.0 1.6 0.00 0.00 0.00 78 1020.2
20260507161005 12 0 0.0 0.0 0.00 0.00 0.00 78 1020.2
20260507160504 12 0 0.0 0.0 0.00 0.00 0.00 78 1020.3
20260507160006 11 0 0.0 0.0 0.00 0.00 0.00 79 1020.2
20260507155504 11 0 0.0 0.0 0.00 0.00 0.00 79 1020.2
20260507154504 11 0 0.0 0.0 0.00 0.00 0.00 81 1020.3
20260507154007 11 0 0.0 0.0 0.00 0.00 0.00 81 1020.4
20260507153006 11 0 0.0 0.0 0.00 0.00 0.00 81 1020.4
20260507152505 11 265 0.0 1.6 0.00 0.00 0.00 81 1020.4
20260507152006 11 265 0.0 1.6 0.00 0.00 0.00 81 1020.4
20260507151504 11 265 0.0 3.2 0.00 0.00 0.00 81 1020.4
20260507151006 11 265 0.0 3.2 0.00 0.00 0.00 81 1020.4
20260507150504 11 0 0.0 0.0 0.00 0.00 0.00 80 1020.4
20260507145504 11 265 0.0 3.2 0.00 0.00 0.00 81 1020.5
20260507145008 11 265 0.0 3.2 0.00 0.00 0.00 81 1020.4
20260507144504 11 265 0.0 3.2 0.00 0.00 0.00 82 1020.4
20260507144005 10 265 0.0 3.2 0.00 0.00 0.00 82 1020.4
20260507143504 10 265 0.0 1.6 0.00 0.00 0.00 83 1020.4
20260507143006 10 265 0.0 1.6 0.00 0.00 0.00 83 1020.4
20260507142504 10 265 0.0 1.6 0.00 0.00 0.00 83 1020.4
20260507142005 10 0 0.0 0.0 0.00 0.00 0.00 84 1020.4
20260507141504 10 265 0.0 1.6 0.00 0.00 0.00 85 1020.4
20260507141007 9 265 0.0 1.6 0.00 0.00 0.00 85 1020.4
20260507140006 9 0 0.0 0.0 0.00 0.00 0.00 85 1020.3
20260507135503 9 0 0.0 0.0 0.00 0.00 0.00 85 1020.3
20260507135005 9 0 0.0 0.0 0.00 0.00 0.00 85 1020.3
20260507134005 9 0 0.0 0.0 0.00 0.00 0.00 85 1020.3
20260507133504 9 0 0.0 0.0 0.00 0.00 0.00 85 1020.2
20260507133005 9 265 0.0 1.6 0.00 0.00 0.00 86 1020.2
20260507132504 9 265 0.0 1.6 0.00 0.00 0.00 86 1020.2
20260507132004 9 0 0.0 0.0 0.00 0.00 0.00 86 1020.2
20260507131504 9 0 0.0 0.0 0.00 0.00 0.00 87 1020.1
20260507131005 9 0 0.0 0.0 0.00 0.00 0.00 87 1020.2
20260507130005 9 0 0.0 0.0 0.00 0.00 0.00 88 1020.1
20260507125504 9 0 0.0 0.0 0.00 0.00 0.00 88 1020.1
20260507125006 9 0 0.0 0.0 0.00 0.00 0.00 88 1020.2
20260507124504 9 0 0.0 0.0 0.00 0.00 0.00 89 1020.2
20260507124004 9 0 0.0 0.0 0.00 0.00 0.00 89 1020.2
20260507123504 9 0 0.0 0.0 0.00 0.00 0.00 89 1020.3
20260507123005 9 0 0.0 0.0 0.00 0.00 0.00 89 1020.3
20260507122005 9 0 0.0 0.0 0.00 0.00 0.00 89 1020.3
20260507121504 9 0 0.0 0.0 0.00 0.00 0.00 89 1020.3
20260507121006 9 0 0.0 0.0 0.00 0.00 0.00 89 1020.4
20260507120503 9 0 0.0 0.0 0.00 0.00 0.00 89 1020.5
20260507120005 9 0 0.0 0.0 0.00 0.00 0.00 89 1020.4
20260507115005 9 0 0.0 0.0 0.00 0.00 0.00 90 1020.6
20260507114505 9 0 0.0 0.0 0.00 0.00 0.00 90 1020.6
20260507114005 9 0 0.0 0.0 0.00 0.00 0.00 90 1020.6
20260507113505 9 0 0.0 0.0 0.00 0.00 0.00 90 1020.8
20260507113005 9 0 0.0 0.0 0.00 0.00 0.00 90 1020.7
20260507112504 9 0 0.0 0.0 0.00 0.00 0.00 90 1020.7
20260507112006 9 0 0.0 0.0 0.00 0.00 0.00 90 1020.8
20260507111504 9 0 0.0 0.0 0.00 0.00 0.00 89 1020.7
20260507111005 9 0 0.0 0.0 0.00 0.00 0.00 89 1020.7
20260507110503 9 0 0.0 0.0 0.00 0.00 0.00 89 1020.8
20260507110005 9 0 0.0 0.0 0.00 0.00 0.00 89 1020.7
20260507105004 10 0 0.0 0.0 0.00 0.00 0.00 89 1020.7
20260507104504 10 0 0.0 0.0 0.00 0.00 0.00 89 1020.8
20260507104004 10 0 0.0 0.0 0.00 0.00 0.00 89 1020.8
20260507103504 10 0 0.0 0.0 0.00 0.00 0.00 89 1020.8
20260507103004 10 0 0.0 0.0 0.00 0.00 0.00 89 1020.9
20260507102504 10 0 0.0 0.0 0.00 0.00 0.00 90 1021.0
20260507102007 10 0 0.0 0.0 0.00 0.00 0.00 89 1021.0
20260507101504 10 0 0.0 0.0 0.00 0.00 0.00 89 1020.9
20260507100503 10 0 0.0 0.0 0.00 0.00 0.00 89 1020.9
20260507100005 10 0 0.0 0.0 0.00 0.00 0.00 89 1020.9
20260507095503 10 0 0.0 0.0 0.00 0.00 0.00 89 1020.9
20260507095004 10 0 0.0 0.0 0.00 0.00 0.00 89 1020.9
20260507094504 10 0 0.0 0.0 0.00 0.00 0.00 89 1020.8
20260507094004 10 0 0.0 0.0 0.00 0.00 0.00 89 1020.8
20260507093504 10 0 0.0 0.0 0.00 0.00 0.00 89 1020.9
20260507093003 10 0 0.0 0.0 0.00 0.00 0.00 89 1020.9
20260507092503 10 0 0.0 0.0 0.00 0.00 0.00 89 1020.8
20260507092004 10 0 0.0 0.0 0.00 0.00 0.00 89 1020.8
20260507091503 10 0 0.0 0.0 0.00 0.00 0.00 89 1020.8
20260507091004 10 0 0.0 0.0 0.00 0.00 0.00 89 1020.8
20260507090503 10 0 0.0 0.0 0.00 0.00 0.00 89 1020.8
20260507090005 10 0 0.0 0.0 0.00 0.00 0.00 89 1020.9
20260507085504 10 0 0.0 0.0 0.00 0.00 0.00 89 1020.8
20260507085005 10 0 0.0 0.0 0.00 0.00 0.00 89 1020.7
20260507084504 10 0 0.0 0.0 0.00 0.00 0.00 89 1020.8
20260507084005 10 0 0.0 0.0 0.00 0.00 0.00 89 1020.8
20260507083503 10 0 0.0 0.0 0.00 0.00 0.00 89 1020.7
20260507082005 11 0 0.0 0.0 0.00 0.00 0.00 89 1020.8
20260507081504 11 0 0.0 0.0 0.00 0.00 0.00 89 1020.7
20260507080504 11 265 0.0 1.6 0.00 0.00 0.00 89 1020.8
20260507075504 11 0 0.0 0.0 0.00 0.00 0.00 89 1020.8
20260507075006 11 0 0.0 0.0 0.00 0.00 0.00 89 1020.9
20260507074505 11 0 0.0 0.0 0.00 0.00 0.00 89 1020.9
20260507074006 11 0 0.0 0.0 0.00 0.00 0.00 89 1020.7
20260507073505 11 0 0.0 0.0 0.00 0.00 0.00 89 1020.7
20260507073006 11 265 0.0 3.2 0.00 0.00 0.00 88 1020.7
20260507072505 11 265 0.0 3.2 0.00 0.00 0.00 88 1020.7
20260507072006 11 265 0.0 3.2 0.00 0.00 0.00 88 1020.7
20260507071006 11 0 0.0 0.0 0.00 0.00 0.00 88 1020.6
20260507070504 11 0 0.0 0.0 0.00 0.00 0.00 87 1020.7
20260507070012 11 0 0.0 0.0 0.00 0.00 0.00 87 1020.7
20260507065505 11 0 0.0 0.0 0.00 0.00 0.00 87 1020.7
20260507065006 11 0 0.0 0.0 0.00 0.00 0.00 87 1020.7
20260507064504 11 0 0.0 0.0 0.00 0.00 0.00 87 1020.7
20260507064006 11 0 0.0 0.0 0.00 0.00 0.00 86 1020.7
20260507063006 11 265 0.0 3.2 0.00 0.00 0.00 86 1020.7
20260507062504 11 265 0.0 3.2 0.00 0.00 0.00 86 1020.7
20260507062005 11 0 0.0 0.0 0.00 0.00 0.00 86 1020.8
20260507061505 11 0 0.0 0.0 0.00 0.00 0.00 85 1020.8
20260507061005 11 0 0.0 0.0 0.00 0.00 0.00 85 1020.7
20260507060505 11 0 0.0 0.0 0.00 0.00 0.00 85 1020.8
20260507060005 11 0 0.0 0.0 0.00 0.00 0.00 85 1020.8
20260507054505 11 0 0.0 0.0 0.00 0.00 0.00 85 1020.8
20260507054005 12 0 0.0 0.0 0.00 0.00 0.00 85 1020.8
20260507053505 12 0 0.0 0.0 0.00 0.00 0.00 84 1020.8
20260507052505 12 265 0.0 3.2 0.00 0.00 0.00 84 1020.8
20260507052005 12 265 0.0 3.2 0.00 0.00 0.00 83 1020.7
20260507051505 12 0 0.0 0.0 0.00 0.00 0.00 83 1020.8
20260507051006 12 265 0.0 3.2 0.00 0.00 0.00 82 1020.8
20260507045505 12 0 0.0 0.0 0.00 0.00 0.00 82 1020.9
20260507045006 12 0 0.0 0.0 0.00 0.00 0.00 82 1020.8
20260507044505 12 0 0.0 0.0 0.00 0.00 0.00 82 1020.8
20260507043505 12 0 0.0 0.0 0.00 0.00 0.00 81 1020.7
20260507042505 12 0 0.0 0.0 0.00 0.00 0.00 81 1020.6
20260507042006 12 0 0.0 0.0 0.00 0.00 0.00 81 1020.7